FW3278 Weather Reports


Display with metric or nautical units.
time (UTC)temp
F
wind
direction
speed
MPH
gust
MPH
rain 1hr
in
rain 24hr
in
rain mn
in
humidity
%
barometer
mb
20260904093604 56 157 9.0 19.0 0.00 0.00 0.00 75 1013.3
20260904092704 56 157 8.0 19.0 0.00 0.00 0.00 75 1013.4
20260904091825 56 157 9.0 18.0 0.00 0.00 0.00 74 1013.4
20260904090904 56 157 10.0 21.0 0.00 0.00 0.00 74 1013.6
20260904090004 55 157 10.0 19.0 0.00 0.00 0.00 74 1013.5
20260904085404 55 157 9.0 21.0 0.00 0.00 0.00 74 1013.5
20260904084504 55 157 7.0 21.0 0.00 0.00 0.00 74 1013.5
20260904083603 55 157 10.0 17.0 0.00 0.00 0.00 74 1013.6
20260904082704 55 157 9.0 22.0 0.00 0.00 0.00 74 1013.7
20260904081803 55 157 8.0 17.0 0.00 0.00 0.00 74 1013.8
20260904080904 55 157 7.0 16.0 0.00 0.00 0.00 74 1013.9
20260904080004 56 157 7.0 15.0 0.00 0.00 0.00 73 1014.2
20260904075404 56 157 7.0 16.0 0.00 0.00 0.00 72 1014.3
20260904074504 56 157 7.0 17.0 0.00 0.00 0.00 72 1014.4
20260904073604 56 157 7.0 15.0 0.00 0.00 0.00 72 1014.3
20260904072703 56 157 7.0 17.0 0.00 0.00 0.00 72 1014.4
20260904071804 56 157 7.0 15.0 0.00 0.00 0.00 71 1014.4
20260904070904 57 157 7.0 16.0 0.00 0.00 0.00 71 1014.3
20260904070004 57 157 7.0 14.0 0.00 0.00 0.00 70 1014.4
20260904065403 57 157 7.0 17.0 0.00 0.00 0.00 70 1014.6
20260904064504 57 157 7.0 17.0 0.00 0.00 0.00 69 1014.7
20260904063604 58 157 6.0 14.0 0.00 0.00 0.00 69 1014.9
20260904062703 58 157 8.0 16.0 0.00 0.00 0.00 68 1015.0
20260904061803 58 157 7.0 18.0 0.00 0.00 0.00 67 1015.1
20260904060903 59 157 7.0 18.0 0.00 0.00 0.00 67 1015.2
20260904060024 59 157 8.0 13.0 0.00 0.00 0.00 65 1015.3
20260904055403 59 157 8.0 17.0 0.00 0.00 0.00 65 1015.3
20260904054503 59 157 8.0 20.0 0.00 0.00 0.00 65 1015.3
20260904053624 60 157 7.0 15.0 0.00 0.00 0.00 65 1015.4
20260904052703 60 157 7.0 14.0 0.00 0.00 0.00 64 1015.5
20260904051804 59 157 9.0 18.0 0.00 0.00 0.00 64 1015.5
20260904050904 59 157 9.0 20.0 0.00 0.00 0.00 63 1015.6
20260904050004 59 157 7.0 18.0 0.00 0.00 0.00 64 1015.7
20260904045404 59 157 7.0 17.0 0.00 0.00 0.00 64 1015.6
20260904044503 59 157 7.0 15.0 0.00 0.00 0.00 64 1015.7
20260904043604 60 157 7.0 12.0 0.00 0.00 0.00 63 1015.6
20260904042725 60 157 7.0 14.0 0.00 0.00 0.00 62 1015.6
20260904041803 60 157 8.0 17.0 0.00 0.00 0.00 63 1015.6
20260904040904 59 157 7.0 18.0 0.00 0.00 0.00 63 1015.7
20260904040003 59 157 6.0 13.0 0.00 0.00 0.00 62 1015.8
20260904035403 59 157 6.0 15.0 0.00 0.00 0.00 61 1015.9
20260904034503 59 157 8.0 16.0 0.00 0.00 0.00 62 1015.9
20260904033603 58 157 7.0 18.0 0.00 0.00 0.00 62 1016.1
20260904032703 58 157 6.0 19.0 0.00 0.00 0.00 60 1016.3
20260904031824 60 157 6.0 13.0 0.00 0.00 0.00 58 1016.4
20260904030903 60 157 7.0 17.0 0.00 0.00 0.00 59 1016.5
20260904030003 59 157 8.0 16.0 0.00 0.00 0.00 58 1016.6
20260904025424 59 157 8.0 18.0 0.00 0.00 0.00 59 1016.5
20260904024504 58 157 8.0 18.0 0.00 0.00 0.00 60 1016.7
20260904023604 57 157 7.0 18.0 0.00 0.00 0.00 63 1016.8
20260904022724 57 157 7.0 15.0 0.00 0.00 0.00 66 1017.0
20260904021804 58 157 7.0 15.0 0.00 0.00 0.00 64 1017.0
20260904020924 60 157 7.0 15.0 0.00 0.00 0.00 62 1017.1
20260904020004 60 157 7.0 15.0 0.00 0.00 0.00 59 1017.3
20260904015403 60 157 7.0 15.0 0.00 0.00 0.00 57 1017.3
20260904014504 59 157 7.0 14.0 0.00 0.04 0.00 58 1017.4
20260904013603 59 157 7.0 15.0 0.00 0.04 0.00 57 1017.5
20260904012703 59 157 7.0 15.0 0.00 0.04 0.00 59 1017.6
20260904011803 58 157 7.0 17.0 0.00 0.04 0.00 60 1018.0
20260904010903 56 157 7.0 17.0 0.00 0.04 0.00 62 1018.2
20260904010003 56 157 6.0 18.0 0.00 0.04 0.00 61 1018.4
20260904005403 56 157 6.0 18.0 0.00 0.04 0.00 61 1018.4
20260904004524 57 157 5.0 12.0 0.00 0.04 0.00 61 1018.6
20260904003603 57 157 5.0 17.0 0.00 0.04 0.00 60 1018.6
20260904002704 57 157 6.0 13.0 0.00 0.04 0.00 61 1018.6
20260904001803 56 157 7.0 13.0 0.00 0.04 0.00 63 1018.7
20260904000903 56 157 6.0 15.0 0.00 0.04 0.00 62 1018.8
20260904000004 56 157 5.0 14.0 0.00 0.04 0.00 63 1019.0
20260903235403 56 157 5.0 14.0 0.00 0.04 0.00 63 1019.3
20260903234503 56 157 5.0 14.0 0.00 0.04 0.00 63 1019.4
20260903233603 55 157 6.0 14.0 0.00 0.04 0.00 64 1019.4
20260903232724 55 157 5.0 14.0 0.00 0.04 0.00 64 1019.3
20260903231803 54 157 5.0 10.0 0.00 0.04 0.00 67 1019.3
20260903230903 53 157 6.0 13.0 0.00 0.04 0.00 67 1019.4
20260903230003 53 157 4.0 13.0 0.00 0.04 0.00 66 1019.4
20260903225403 53 157 4.0 11.0 0.00 0.04 0.00 67 1019.4
20260903224503 52 157 5.0 13.0 0.00 0.04 0.00 68 1019.4
20260903223603 52 157 3.0 10.0 0.00 0.04 0.00 69 1019.2
20260903222703 51 157 4.0 10.0 0.00 0.04 0.00 71 1019.2
20260903221803 50 157 4.0 9.0 0.00 0.04 0.00 72 1019.1
20260903220903 50 157 3.0 8.0 0.00 0.04 0.00 73 1019.1
20260903220002 48 157 2.0 8.0 0.00 0.04 0.00 75 1019.1
20260903215401 48 157 2.0 5.0 0.00 0.04 0.00 76 1019.2
20260903214502 47 157 2.0 4.0 0.00 0.04 0.00 77 1018.9
20260903213602 46 157 2.0 5.0 0.00 0.04 0.00 77 1018.8
20260903212702 46 157 2.0 4.0 0.00 0.04 0.00 77 1018.7
20260903211802 46 157 2.0 4.0 0.00 0.04 0.00 77 1018.6
20260903210902 46 157 2.0 5.0 0.00 0.04 0.00 77 1018.6
20260903210002 46 157 2.0 5.0 0.00 0.04 0.00 78 1018.4
20260903205402 46 157 1.0 4.0 0.00 0.04 0.00 78 1018.4
20260903204502 46 157 2.0 4.0 0.00 0.04 0.00 78 1018.3
20260903203623 46 157 2.0 5.0 0.00 0.04 0.00 78 1018.2
20260903202702 46 157 2.0 5.0 0.00 0.04 0.00 78 1018.2
20260903201802 46 157 1.0 5.0 0.00 0.04 0.00 78 1018.2
20260903200902 46 157 1.0 5.0 0.00 0.04 0.00 78 1018.1
20260903200002 46 157 1.0 4.0 0.00 0.04 0.00 78 1018.2
20260903195402 46 157 2.0 5.0 0.00 0.04 0.00 78 1018.1
20260903194501 47 157 3.0 5.0 0.00 0.04 0.00 78 1018.2
20260903193602 47 157 3.0 9.0 0.00 0.04 0.00 78 1018.3
20260903192702 47 157 3.0 10.0 0.00 0.04 0.00 79 1018.3
20260903191802 46 157 3.0 8.0 0.00 0.04 0.00 79 1018.3
20260903190902 46 157 2.0 6.0 0.00 0.04 0.00 80 1018.3
20260903190023 46 157 2.0 8.0 0.00 0.04 0.00 80 1018.3
20260903185402 47 157 2.0 6.0 0.00 0.04 0.00 80 1018.2
20260903184501 47 157 2.0 6.0 0.00 0.04 0.00 80 1018.2
20260903183601 47 157 2.0 6.0 0.00 0.04 0.00 80 1018.2
20260903182702 47 157 2.0 5.0 0.00 0.04 0.00 80 1018.2
20260903181802 47 157 2.0 5.0 0.00 0.04 0.00 80 1018.2
20260903180901 47 157 2.0 5.0 0.00 0.04 0.00 81 1018.1
20260903180023 47 157 1.0 6.0 0.00 0.04 0.00 81 1018.1
20260903175402 47 157 2.0 5.0 0.00 0.04 0.00 81 1018.1
20260903174523 47 157 2.0 5.0 0.00 0.04 0.00 81 1018.0
20260903173601 48 157 2.0 5.0 0.00 0.04 0.00 81 1018.1
20260903172701 48 157 1.0 5.0 0.00 0.04 0.00 81 1018.1
20260903171801 48 157 1.0 4.0 0.00 0.04 0.00 81 1018.2
20260903170901 48 157 1.0 4.0 0.00 0.04 0.00 81 1018.3
20260903170001 48 157 1.0 4.0 0.00 0.04 0.00 81 1018.5
20260903165402 48 157 1.0 3.0 0.00 0.04 0.00 81 1018.4
20260903164501 48 157 1.0 5.0 0.00 0.04 0.00 82 1018.5
20260903163623 48 157 2.0 5.0 0.00 0.04 0.00 82 1018.5
20260903162701 48 157 1.0 5.0 0.00 0.04 0.00 82 1018.5
20260903161801 48 157 2.0 4.0 0.00 0.04 0.00 82 1018.7
20260903160902 48 157 2.0 5.0 0.00 0.04 0.00 82 1018.8
20260903160001 49 157 2.0 4.0 0.00 0.04 0.00 82 1018.9
20260903155402 49 157 2.0 4.0 0.00 0.04 0.00 82 1018.9
20260903154501 49 157 2.0 6.0 0.00 0.04 0.00 82 1018.9
20260903153601 49 157 2.0 5.0 0.00 0.04 0.00 82 1019.1
20260903152701 48 157 2.0 6.0 0.00 0.04 0.00 83 1019.1
20260903151801 48 157 1.0 4.0 0.00 0.04 0.00 83 1019.1
20260903150901 48 157 2.0 5.0 0.00 0.04 0.00 83 1019.1
20260903150002 48 157 2.0 4.0 0.00 0.04 0.00 83 1019.2
20260903145422 48 157 2.0 4.0 0.00 0.04 0.00 84 1019.2
20260903144501 48 157 1.0 5.0 0.00 0.04 0.00 84 1019.2
20260903143601 48 157 1.0 4.0 0.00 0.04 0.00 84 1019.2
20260903142701 48 157 1.0 4.0 0.00 0.04 0.00 83 1019.2
20260903141801 48 157 1.0 4.0 0.00 0.04 0.00 84 1019.1
20260903140901 48 157 1.0 4.0 0.00 0.04 0.00 84 1019.2
20260903140002 48 157 1.0 2.0 0.00 0.04 0.00 84 1019.4
20260903135401 48 157 0.0 2.0 0.00 0.04 0.04 83 1019.4
20260903134522 48 157 0.0 2.0 0.00 0.04 0.04 83 1019.4
20260903133623 48 157 0.0 3.0 0.00 0.04 0.04 83 1019.3
20260903132701 48 0 0.0 2.0 0.00 0.04 0.04 82 1019.3
20260903131802 49 0 0.0 3.0 0.00 0.04 0.04 82 1019.4
20260903130901 49 157 1.0 2.0 0.00 0.04 0.04 82 1019.4
20260903130001 49 157 1.0 3.0 0.00 0.04 0.04 82 1019.4
20260903125401 49 157 1.0 3.0 0.00 0.04 0.04 82 1019.5
20260903124501 49 157 1.0 4.0 0.00 0.04 0.04 82 1019.3
20260903123601 49 157 1.0 4.0 0.00 0.04 0.04 83 1019.3
20260903122701 48 0 0.0 2.0 0.00 0.04 0.04 81 1019.3
20260903121801 48 0 0.0 0.0 0.00 0.04 0.04 80 1019.3
20260903120901 49 0 0.0 2.0 0.00 0.04 0.04 79 1019.2
20260903120001 49 0 0.0 2.0 0.00 0.04 0.04 78 1019.1
20260903115401 49 0 0.0 0.0 0.00 0.04 0.04 78 1019.1
20260903114501 50 157 0.0 1.0 0.00 0.04 0.04 78 1019.1
20260903113601 50 157 1.0 3.0 0.00 0.04 0.04 77 1019.1
20260903112701 50 157 1.0 3.0 0.00 0.04 0.04 77 1018.8
20260903111801 50 157 2.0 9.0 0.00 0.04 0.04 77 1018.6
20260903110901 50 157 2.0 6.0 0.00 0.04 0.04 78 1018.8
20260903110022 51 157 2.0 5.0 0.00 0.04 0.04 78 1018.6
20260903105401 51 157 2.0 8.0 0.00 0.04 0.04 78 1018.5
20260903104501 50 157 2.0 8.0 0.00 0.04 0.04 78 1018.4
20260903103602 50 157 1.0 4.0 0.00 0.04 0.04 78 1018.2
20260903102701 50 157 2.0 5.0 0.00 0.04 0.04 78 1018.1
20260903101801 50 157 1.0 4.0 0.00 0.04 0.04 78 1017.9
20260903095404 51 157 0.0 3.0 0.00 0.04 0.04 76 1017.6
20260903094504 51 157 1.0 3.0 0.00 0.04 0.04 76 1017.5